GFSNIL_sfc_dewp_000.txt.gz
Dewpoint
32 28 27 27 27 26 26 26 28 29 29 29 30 30 31 30 30 32 36 36 36 32
30 28 24 26 28 26 28 23 26 28 29 30 30 31 32 30 31 33 36 38 38 36
27 26 25 27 27 28 28 27 27 27 28 28 29 29 30 30 31 31 34 33 34 35
25 24 25 26 26 26 27 26 26 26 27 27 27 28 28 29 30 30 30 32 33 34
25 25 26 25 26 27 26 27 27 26 25 25 24 25 26 27 27 28 29 29 30 30
26 25 25 26 26 26 26 26 25 23 23 23 23 23 25 26 27 28 28 29 29 29
26 26 26 26 26 26 26 23 21 22 22 23 23 23 24 25 26 27 27 29 31 31
27 27 26 25 26 25 23 20 20 21 21 22 23 21 25 24 25 25 26 28 28 29
26 25 24 24 24 21 19 18 19 20 21 23 20 25 26 25 25 25 26 28 28 28
24 23 23 21 18 16 18 18 18 20 23 24 24 26 25 25 26 28 28 28 28 27
22 21 21 18 15 16 16 18 19 23 23 23 22 25 25 25 27 29 29 28 28 28
21 20 17 14 15 16 17 19 22 23 23 24 26 26 25 26 29 30 29 28 29 28
20 17 14 13 14 16 19 21 24 24 25 25 28 26 26 28 30 29 28 29 30 28
17 14 13 14 15 16 22 26 28 28 29 29 29 30 28 28 31 30 30 28 30 32

GFSNIL_sfc_dewp_003.txt.gz
Dewpoint
36 35 34 31 30 29 28 28 29 30 29 29 29 29 32 32 34 35 35 37 36 33
35 34 31 30 30 29 28 25 27 28 29 28 29 28 30 32 33 35 36 38 39 36
32 30 29 30 29 28 28 28 27 27 26 26 27 28 29 31 31 34 34 33 35 35
30 28 27 26 26 27 28 26 26 25 25 26 26 27 28 29 30 30 31 33 33 34
28 26 26 26 26 28 27 27 26 26 25 24 24 24 24 25 25 26 27 29 30 31
26 26 27 26 27 27 26 25 25 24 24 23 23 23 24 23 25 26 27 28 29 30
28 27 26 27 27 27 26 25 24 23 23 23 22 21 22 21 24 26 26 29 30 28
29 28 27 27 27 26 26 24 22 21 22 22 21 18 22 23 24 26 26 27 26 28
27 26 26 26 26 25 22 20 21 21 21 22 17 25 29 28 25 25 25 27 26 26
25 25 25 23 22 21 21 21 21 21 21 21 23 27 28 28 26 27 27 27 28 27
23 23 24 23 19 19 20 20 20 21 22 23 23 27 28 28 28 28 28 28 28 28
22 23 21 19 19 19 19 20 20 21 24 25 26 27 28 27 30 30 29 28 28 29
22 20 18 19 19 19 19 19 24 24 25 26 28 28 29 30 31 31 30 30 30 29
19 18 19 18 18 17 20 25 30 30 29 28 30 31 31 32 32 31 29 28 30 32

GFSNIL_sfc_dewp_006.txt.gz
Dewpoint
43 41 41 40 38 36 34 34 34 33 34 34 34 35 35 34 33 34 34 32 33 33
42 41 39 38 37 35 35 30 34 34 34 34 35 34 34 33 32 32 33 33 34 33
38 38 36 36 34 33 33 32 33 33 33 32 32 32 32 31 31 32 32 31 32 32
36 36 34 32 32 31 33 32 32 31 30 29 28 29 29 29 29 29 28 29 29 29
34 33 32 32 32 33 32 32 32 30 28 27 27 27 27 27 26 26 26 26 27 27
32 32 31 33 33 32 32 31 29 28 28 27 27 26 26 25 25 25 25 25 26 26
30 32 33 33 32 32 31 30 29 28 27 27 25 23 23 22 23 24 24 27 28 28
36 36 33 32 32 31 31 28 28 25 25 26 24 21 23 24 25 25 25 26 26 26
36 33 31 31 31 31 29 27 25 25 25 25 21 27 30 30 26 25 25 26 26 25
35 30 30 29 27 28 26 26 25 24 24 24 24 29 30 29 26 26 25 25 25 25
29 28 27 28 26 25 24 24 23 24 24 24 24 28 28 28 26 26 27 27 26 26
26 26 27 25 23 24 23 22 23 23 25 24 25 28 28 27 27 29 28 28 28 27
26 25 23 23 23 22 23 20 25 24 26 27 25 27 29 29 30 30 29 28 30 30
24 22 22 23 22 20 21 24 25 26 26 26 26 27 29 29 29 29 28 28 27 27

GFSNIL_sfc_dewp_009.txt.gz
Dewpoint
42 41 38 39 39 36 34 35 34 34 35 34 34 35 36 34 32 33 33 32 33 33
42 40 38 35 34 35 34 32 34 35 34 36 37 37 34 35 33 33 33 33 34 34
37 34 35 35 33 33 33 34 35 37 38 37 35 33 32 31 32 32 32 32 32 32
34 32 32 32 32 32 33 34 36 36 35 33 31 30 30 30 30 30 30 30 29 29
32 30 30 30 31 32 32 33 32 33 31 30 31 30 30 29 28 27 26 27 28 27
30 29 30 31 31 31 32 33 32 30 31 31 31 29 29 27 26 25 26 26 26 25
29 29 31 31 31 31 31 31 30 30 31 31 28 25 25 24 24 25 25 27 28 27
35 34 34 33 31 31 30 30 30 29 27 27 26 21 24 25 26 26 26 27 26 26
37 36 33 30 30 30 29 29 26 25 26 26 22 28 31 29 26 26 26 25 25 25
38 38 37 31 28 27 27 25 24 24 24 24 25 29 29 28 25 25 25 24 25 25
38 35 27 27 27 24 23 22 22 23 24 24 23 28 29 28 26 26 26 26 26 26
27 26 26 24 22 22 21 21 22 23 23 24 26 28 29 28 27 27 27 28 28 28
25 24 22 21 21 21 21 20 24 24 26 27 25 27 27 27 28 27 26 26 26 27
24 22 22 22 21 19 20 23 20 20 23 24 25 24 26 26 27 27 27 26 27 26

GFSNIL_sfc_dewp_012.txt.gz
Dewpoint
42 43 42 41 39 38 36 36 35 36 38 38 39 39 40 39 38 37 34 32 32 32
39 41 41 37 36 36 35 35 37 38 40 41 41 40 39 37 35 35 34 32 32 32
36 36 35 34 33 34 36 38 39 41 41 41 39 37 35 35 34 33 32 32 32 32
32 33 32 32 33 33 36 38 39 40 38 37 36 35 34 32 32 31 30 30 30 29
32 31 30 31 32 33 34 35 36 36 34 34 34 32 31 30 29 29 27 27 27 27
30 29 29 31 32 32 32 32 32 32 31 32 32 30 30 29 27 27 26 26 26 27
30 29 31 32 32 31 31 31 30 30 30 31 30 27 27 26 26 26 26 27 27 26
36 34 33 32 32 33 31 30 30 29 27 27 26 23 26 27 27 26 26 26 25 25
39 38 38 37 36 33 32 29 26 25 25 25 22 28 30 29 26 24 23 24 24 24
40 38 37 37 34 31 27 24 23 22 23 23 24 27 28 29 26 26 25 25 25 25
37 37 34 29 25 23 22 21 21 22 23 23 23 27 28 29 26 26 26 26 26 26
27 25 24 22 21 21 21 21 20 22 23 24 25 27 27 27 25 25 27 27 26 26
25 23 22 22 21 21 19 20 23 24 24 24 24 26 26 25 26 25 25 25 25 27
24 23 23 21 20 19 20 22 18 18 21 23 24 23 25 26 27 26 25 25 25 26

GFSNIL_sfc_dewp_015.txt.gz
Dewpoint
41 40 41 42 41 40 36 35 37 38 39 40 40 40 41 40 40 41 40 38 37 33
37 37 39 37 37 36 36 37 38 40 41 41 41 42 42 40 38 38 37 35 34 32
35 36 36 34 34 35 36 38 40 40 41 41 41 41 40 37 35 35 34 33 32 32
36 33 32 32 34 35 37 38 39 37 38 39 38 37 35 35 33 32 31 30 30 30
34 31 31 32 32 34 35 36 34 35 36 36 35 34 32 31 30 29 28 28 28 27
31 29 29 31 33 33 33 32 32 32 33 32 32 30 30 29 28 28 27 27 27 27
30 29 30 32 32 32 32 31 30 31 31 31 28 26 26 25 26 26 26 27 26 26
36 35 36 37 37 36 36 35 31 28 26 25 24 22 26 27 26 26 25 25 25 25
40 40 39 39 36 36 35 30 26 24 24 24 22 28 29 28 26 26 25 24 24 25
40 38 37 37 36 33 27 23 22 22 23 23 23 26 27 29 26 26 25 25 25 25
37 37 33 27 24 22 22 21 21 21 23 23 23 26 26 27 26 25 25 26 26 26
27 25 23 21 21 21 20 20 20 22 24 23 23 25 25 25 23 23 24 25 26 25
24 23 22 22 20 20 20 20 24 23 23 23 22 24 25 25 24 24 25 25 25 25
25 24 22 21 20 20 21 22 19 17 19 21 22 21 25 25 26 25 25 24 25 27

GFSNIL_sfc_dewp_018.txt.gz
Dewpoint
38 37 37 38 39 39 37 36 38 39 39 39 40 40 41 41 41 42 41 39 38 36
36 36 35 36 36 36 36 38 39 39 39 39 41 41 41 40 39 39 38 38 38 37
35 35 35 35 35 35 36 38 38 38 38 38 39 40 40 39 39 37 37 36 34 33
34 35 33 33 34 35 37 38 38 38 37 37 36 38 38 37 35 33 32 31 30 30
34 33 31 32 33 35 35 36 34 35 35 35 34 34 32 31 30 29 28 28 27 27
33 30 29 31 33 33 33 34 35 34 33 32 32 30 29 28 27 27 27 27 27 27
33 32 34 35 37 37 37 36 36 34 32 30 26 25 25 25 25 26 26 26 26 25
36 39 39 38 37 37 37 35 31 27 26 25 24 21 26 26 26 25 24 26 25 24
40 39 37 37 37 36 36 35 26 24 24 23 22 27 28 29 27 26 26 25 24 24
39 37 38 38 36 34 26 23 22 22 23 23 24 26 26 26 25 26 26 25 25 24
33 34 30 25 23 22 22 21 20 21 23 24 22 24 25 25 25 24 25 25 25 25
26 24 23 23 22 21 20 20 21 23 24 23 22 24 25 25 24 23 23 24 25 26
24 24 23 21 21 20 20 21 24 23 22 22 21 23 25 25 23 22 25 23 24 25
25 23 21 21 21 21 21 22 19 16 19 21 22 21 25 24 25 25 25 25 24 26

GFSNIL_sfc_dewp_021.txt.gz
Dewpoint
41 39 39 39 39 39 38 39 41 41 41 42 42 42 43 42 42 40 38 37 37 35
40 40 39 39 39 38 39 39 41 41 41 41 41 41 41 40 39 39 39 38 38 37
39 39 39 38 37 37 39 41 41 41 40 39 39 39 39 39 38 37 37 37 37 37
39 39 36 34 36 37 39 41 39 37 36 36 37 37 37 37 36 35 34 33 32 31
39 36 33 34 35 37 36 37 38 39 38 38 36 34 32 31 30 28 27 26 27 25
37 33 34 37 38 39 39 38 38 37 35 34 33 28 26 25 25 25 25 26 26 26
36 37 38 38 37 37 37 36 35 35 30 28 25 23 23 24 25 25 25 26 25 24
38 39 38 37 38 37 36 36 37 34 27 26 23 20 25 24 25 24 24 24 24 24
40 40 39 39 38 37 38 36 27 25 24 24 20 26 26 26 23 22 22 22 22 22
36 35 35 32 26 25 25 25 24 23 23 23 24 24 24 25 23 23 23 23 22 21
28 26 26 25 25 25 23 23 22 23 23 22 20 23 24 25 25 25 24 23 23 23
25 25 25 23 23 23 22 22 22 22 22 21 22 22 24 26 26 25 25 24 24 23
26 25 23 23 23 22 22 21 23 21 21 23 24 23 25 25 26 26 24 25 24 25
25 25 24 22 22 21 21 23 26 25 25 24 23 25 24 23 26 24 25 24 24 26

GFSNIL_sfc_dewp_024.txt.gz
Dewpoint
41 40 39 39 39 38 37 38 42 43 43 42 41 41 42 43 42 40 39 38 38 38
41 42 41 40 39 37 39 38 41 42 41 41 42 41 41 41 41 41 40 39 39 38
42 42 41 39 37 38 39 40 40 41 40 39 40 40 41 40 40 38 38 37 37 36
42 41 38 36 36 38 40 39 37 39 39 39 39 39 38 37 36 34 33 32 31 29
40 39 36 36 37 38 37 40 40 39 39 37 35 36 36 32 30 28 27 27 27 25
38 37 36 37 37 38 38 38 38 37 34 32 31 29 28 26 27 27 26 25 25 25
37 37 38 38 37 37 36 35 34 35 35 36 30 27 25 25 25 25 24 26 26 25
39 39 40 39 37 37 36 34 33 32 29 28 26 20 25 24 24 23 22 23 22 24
36 36 36 36 34 31 28 26 26 26 26 26 21 26 25 25 22 21 21 22 22 22
30 29 29 26 25 26 27 26 25 25 25 25 25 24 24 24 22 23 23 23 22 19
28 26 26 26 26 26 25 25 25 25 24 24 21 24 24 24 24 25 24 23 22 22
28 26 25 26 25 24 24 24 23 23 23 23 23 25 24 25 25 25 24 23 24 25
27 26 25 24 24 23 23 22 24 24 25 25 25 24 24 23 26 27 25 25 24 26
26 25 23 23 23 22 22 25 30 31 27 26 25 26 24 22 25 26 24 24 24 26

GFSNIL_sfc_dewp_027.txt.gz
Dewpoint
43 40 41 42 41 39 37 36 39 40 43 44 43 43 44 44 42 41 41 39 39 40
43 42 42 42 41 38 38 36 41 43 41 41 41 41 41 42 42 42 40 41 41 40
40 40 40 40 38 37 38 41 41 40 40 40 39 39 39 40 40 39 40 41 40 38
37 37 38 36 36 37 39 38 39 39 39 38 37 36 37 37 35 34 33 33 33 32
35 35 35 37 37 38 37 38 38 39 38 36 35 32 31 31 29 28 28 30 29 25
34 37 37 38 38 37 37 37 37 37 37 34 31 30 29 28 26 25 25 25 24 23
35 38 38 40 39 40 38 36 37 35 31 29 25 24 24 23 25 24 23 24 24 24
36 36 38 38 37 36 35 28 27 26 25 25 23 19 25 24 24 22 22 23 21 23
32 31 32 32 31 29 28 28 25 24 24 24 19 27 25 25 23 21 21 22 22 22
30 30 30 29 28 27 27 24 24 24 23 23 23 25 24 25 23 22 22 23 23 21
30 30 28 25 24 24 23 24 23 24 23 23 21 27 25 25 23 23 23 24 23 22
29 25 24 23 23 23 23 23 22 22 25 25 26 28 26 24 25 24 23 21 24 25
25 24 23 23 22 23 22 21 23 26 25 26 25 27 25 24 26 26 25 24 23 25
25 23 22 22 22 21 21 24 31 33 29 26 28 29 25 24 27 25 26 24 25 26

GFSNIL_sfc_dewp_030.txt.gz
Dewpoint
47 46 45 45 44 42 41 40 43 43 42 42 42 42 42 42 42 42 41 39 39 40
45 44 44 44 43 41 41 40 42 42 41 41 40 41 41 41 40 40 40 40 40 40
39 40 41 42 40 41 40 40 40 40 40 39 39 39 38 38 38 39 38 39 38 38
38 39 40 40 40 39 40 39 39 39 38 38 38 38 37 37 37 37 36 35 34 34
38 38 38 38 39 40 38 38 39 39 39 39 36 35 34 33 32 31 30 29 28 27
36 37 39 39 40 40 40 40 39 38 37 36 35 31 29 27 28 28 26 25 25 25
37 36 38 39 39 39 39 39 37 35 31 31 27 25 26 26 27 27 24 25 25 24
36 35 36 37 37 35 34 32 31 30 28 28 25 23 26 25 25 25 23 23 23 24
33 34 35 35 34 34 32 31 29 27 27 27 21 28 27 26 24 24 23 22 22 24
32 33 34 31 30 30 30 28 27 27 27 27 27 28 27 27 24 23 23 23 23 23
30 29 31 31 28 29 27 27 26 26 28 26 24 30 28 27 24 23 23 23 21 22
28 29 29 28 28 26 26 26 25 26 27 25 25 28 29 27 25 24 23 22 23 24
30 28 29 28 26 26 26 24 30 28 28 28 26 29 29 28 27 23 23 23 23 25
30 29 28 26 25 24 25 27 30 30 30 28 28 27 27 27 26 25 23 22 22 23

GFSNIL_sfc_dewp_033.txt.gz
Dewpoint
43 43 43 42 41 40 39 41 41 41 41 40 40 40 39 39 40 38 39 37 40 39
37 38 38 39 40 40 40 39 41 40 39 39 39 39 38 38 37 37 37 37 37 37
36 36 39 39 38 38 38 38 38 39 38 37 37 39 38 37 36 36 37 37 36 36
35 37 38 38 38 39 39 37 37 39 39 39 40 39 37 37 36 36 35 34 32 31
34 37 39 39 39 39 39 39 39 40 39 38 38 37 36 33 31 29 27 26 26 27
35 35 37 38 38 38 39 39 38 38 38 36 35 31 28 28 28 27 26 26 25 25
35 34 35 36 37 37 38 38 37 32 32 30 28 27 26 25 26 25 25 26 25 24
34 34 34 33 34 34 33 31 31 29 28 28 26 24 25 24 24 24 24 25 23 23
34 34 34 33 32 32 30 30 27 27 27 27 23 29 28 26 24 24 23 22 23 24
33 34 33 32 32 29 28 25 26 25 27 26 26 29 28 28 25 23 22 22 23 20
33 32 33 34 30 27 24 23 24 26 26 25 24 29 29 30 25 24 23 23 22 21
35 35 35 32 28 24 23 23 25 27 26 26 26 29 30 29 25 25 25 25 24 22
36 36 35 34 29 24 24 27 28 27 28 29 26 28 29 27 21 21 24 23 22 23
36 34 35 28 23 24 25 27 28 26 27 27 27 25 25 27 25 23 23 21 21 22

GFSNIL_sfc_dewp_036.txt.gz
Dewpoint
38 39 40 40 40 40 40 41 41 40 39 39 39 38 38 37 37 37 35 35 36 37
35 36 39 39 39 39 39 40 40 39 39 39 38 38 37 37 36 36 36 35 35 35
35 39 38 38 38 37 38 38 38 38 38 37 39 39 38 37 37 36 36 37 36 35
34 37 38 38 38 38 38 38 38 38 38 38 37 37 36 35 35 34 31 28 27 27
33 37 38 38 38 38 36 38 38 38 37 36 36 35 32 30 29 27 26 26 26 25
32 36 36 37 38 37 37 37 37 37 35 32 31 28 27 27 26 25 25 25 25 24
32 35 34 36 36 36 37 36 35 32 31 29 27 25 25 25 24 24 24 25 25 24
32 34 35 35 34 37 35 33 32 27 28 27 25 24 25 24 24 23 23 24 23 23
32 34 34 35 35 34 32 34 27 26 27 26 23 29 27 27 24 23 23 22 22 23
33 34 34 34 35 36 36 29 25 27 27 25 25 29 29 30 27 24 23 23 22 22
34 33 34 35 35 33 32 28 25 27 26 25 24 29 30 30 27 25 25 25 24 23
35 35 36 36 35 35 33 25 27 27 26 25 26 29 29 27 24 24 23 24 23 21
35 36 35 34 34 32 25 28 27 27 27 27 25 25 25 24 22 15 21 22 21 21
36 35 35 33 27 25 28 27 26 24 25 25 24 22 23 22 19 20 21 20 19 20

GFSNIL_sfc_dewp_039.txt.gz
Dewpoint
37 37 38 39 39 39 40 40 40 39 39 38 38 37 37 36 36 36 35 34 35 36
35 36 38 38 38 38 39 40 39 39 38 38 38 38 37 35 35 35 35 35 35 36
34 38 38 38 37 37 37 37 37 37 37 37 37 37 37 35 34 34 34 34 33 31
33 37 38 37 37 38 37 37 37 37 38 37 35 35 34 33 30 28 26 26 26 26
33 34 37 37 38 38 37 36 36 36 37 36 33 31 28 28 27 25 24 24 25 25
31 32 35 36 37 37 36 36 36 37 37 33 30 28 26 26 24 24 24 24 24 23
31 31 33 35 36 36 36 37 36 35 33 30 27 26 25 24 24 24 24 25 24 23
33 33 34 34 35 35 37 35 35 36 31 29 26 24 25 24 24 24 23 24 23 23
33 33 34 34 34 34 35 35 37 32 29 28 23 29 29 28 25 25 24 23 23 23
33 33 32 32 35 34 34 34 32 28 28 25 25 29 29 30 28 26 25 24 24 23
34 34 34 34 33 31 31 30 30 26 25 24 24 29 29 28 25 24 24 23 23 23
33 34 34 35 35 35 34 32 26 26 25 25 25 26 26 25 22 22 21 21 21 20
35 35 34 34 35 32 25 27 27 26 26 26 22 23 23 22 20 13 20 20 19 20
34 33 33 32 26 27 26 27 26 24 24 25 23 22 21 20 18 18 20 19 19 21

GFSNIL_sfc_dewp_042.txt.gz
Dewpoint
35 35 36 37 39 39 39 39 39 39 38 38 37 37 36 36 35 35 35 34 34 34
34 35 36 37 38 37 38 39 39 38 37 37 37 37 36 35 35 34 34 34 33 34
33 35 37 37 37 37 37 37 37 37 36 37 37 37 36 36 34 33 33 31 27 27
33 34 37 37 37 37 37 37 36 36 37 37 36 35 34 33 30 27 26 25 25 25
32 32 33 35 37 37 37 37 35 36 36 36 35 33 30 28 26 25 24 24 24 25
31 31 31 32 34 36 36 36 35 36 35 35 33 28 27 26 24 24 24 24 24 24
31 31 31 33 34 34 35 35 35 34 34 35 30 26 25 25 24 23 24 25 25 24
32 31 32 32 33 34 35 34 34 35 36 32 26 23 25 24 24 24 24 25 25 24
32 32 32 32 32 34 34 34 35 35 33 28 25 29 30 30 28 27 26 25 25 24
33 33 33 33 34 33 31 32 30 28 28 25 25 29 29 29 25 24 23 21 21 20
31 32 33 33 33 32 33 33 32 27 25 23 25 28 28 26 23 21 21 20 20 20
31 33 33 32 32 33 34 33 29 26 24 25 24 25 25 23 22 20 19 19 20 20
33 33 32 32 32 31 27 26 26 25 25 26 22 23 22 22 20 12 19 20 20 21
33 32 32 31 28 27 26 28 27 25 24 25 23 21 22 21 19 19 21 20 20 21

GFSNIL_sfc_dewp_045.txt.gz
Dewpoint
37 36 36 38 38 39 39 40 42 43 42 41 41 41 41 41 40 41 41 40 39 38
38 38 38 40 41 41 41 40 42 42 41 42 41 41 41 41 40 41 40 39 38 37
36 37 38 40 41 41 40 40 40 41 40 40 39 40 41 40 38 38 38 35 31 30
35 35 36 36 37 37 39 39 40 40 38 37 38 39 38 36 34 31 30 29 27 27
34 35 35 34 34 37 37 39 40 40 37 37 37 37 34 32 29 28 26 26 26 25
33 33 32 33 34 34 35 36 38 38 38 37 35 34 33 28 26 26 25 25 25 24
33 33 33 34 33 35 36 37 37 36 36 37 35 33 30 26 26 25 25 26 26 25
34 34 33 33 35 36 37 37 36 37 35 35 33 30 28 26 26 26 26 26 24 24
34 33 33 34 35 36 36 35 34 34 33 31 28 29 30 29 27 25 22 19 17 16
33 32 32 33 34 34 35 34 34 32 30 29 27 29 29 27 23 20 19 16 14 14
31 31 33 34 33 34 35 36 33 33 28 26 25 26 27 25 22 21 17 16 16 16
30 32 33 31 32 33 33 32 32 30 26 25 24 23 24 23 23 21 19 18 18 18
32 33 32 32 31 32 28 27 28 26 26 26 25 22 22 23 25 25 22 20 17 19
33 34 33 31 30 29 29 29 32 31 27 26 25 25 22 22 26 24 22 19 17 18

GFSNIL_sfc_dewp_048.txt.gz
Dewpoint
37 37 36 36 36 35 35 35 38 40 41 41 41 41 40 39 38 39 39 37 36 33
38 37 37 38 39 38 40 37 39 40 41 41 40 40 40 39 38 38 39 38 37 34
36 36 37 39 38 37 37 36 37 37 37 37 38 38 38 37 35 36 36 33 31 29
35 32 32 32 31 31 32 29 30 30 33 34 35 37 37 37 35 34 33 31 29 27
29 29 28 28 29 31 30 31 31 32 34 34 35 37 37 35 36 33 30 28 27 26
26 27 27 28 29 30 31 32 32 33 34 34 36 35 36 34 35 31 28 27 27 26
27 28 29 29 30 32 32 33 34 34 35 36 36 35 35 32 30 29 27 28 28 26
29 30 30 30 32 32 34 33 33 34 34 35 33 30 31 29 28 28 27 26 23 22
28 29 31 32 32 33 32 32 33 32 32 31 28 29 29 29 26 25 23 20 20 18
25 27 30 30 31 32 33 33 33 33 32 31 30 29 30 26 24 23 21 20 18 16
25 27 28 31 31 31 32 33 32 33 33 31 27 28 27 25 24 23 22 21 20 19
28 28 30 30 31 31 30 30 29 32 32 29 27 25 26 24 25 24 23 21 20 19
28 30 30 31 31 30 29 28 29 28 29 28 28 24 23 23 27 28 25 22 19 22
28 28 28 29 31 29 27 30 33 33 32 28 28 28 23 23 28 26 23 22 19 19

GFSNIL_sfc_dewp_051.txt.gz
Dewpoint
39 39 38 37 36 36 36 36 38 38 37 37 37 40 38 42 41 39 41 39 38 36
39 40 39 38 39 37 38 33 34 36 36 35 35 35 38 39 39 40 39 38 39 35
39 37 37 37 35 34 33 31 30 31 30 30 32 33 33 38 37 38 39 35 34 32
36 33 32 31 30 29 30 29 29 29 30 31 31 31 33 37 36 33 34 33 33 31
30 30 29 27 27 30 30 31 31 31 30 31 30 31 32 32 33 32 32 32 32 30
26 25 26 26 28 29 30 31 31 31 31 31 34 36 35 34 34 34 33 31 29 28
24 27 28 29 29 31 31 32 31 31 31 34 34 33 32 32 31 31 30 30 29 26
26 27 28 29 31 31 32 31 30 31 31 32 32 30 29 30 30 28 28 27 22 22
23 24 26 29 31 31 30 30 31 32 33 33 30 30 30 29 27 26 23 21 21 21
22 23 25 25 26 29 31 30 32 33 32 34 34 31 30 26 25 25 23 22 21 19
22 24 25 27 29 30 30 30 31 32 33 33 35 30 28 26 25 24 23 23 22 21
24 25 27 28 30 30 29 29 29 30 31 32 34 28 27 25 26 24 24 23 22 21
26 27 28 29 30 30 29 27 29 29 30 30 31 27 26 24 27 32 25 23 21 24
26 26 27 27 28 28 28 30 32 34 31 31 32 31 26 24 26 27 25 23 22 22

GFSNIL_sfc_dewp_054.txt.gz
Dewpoint
44 45 43 43 40 42 41 41 42 41 40 40 40 40 40 41 41 41 41 39 39 39
44 42 41 41 42 42 41 34 37 37 36 36 37 37 38 37 39 38 39 39 39 38
40 40 43 40 39 38 36 35 35 35 35 35 35 36 36 35 37 37 38 37 36 35
42 40 36 35 35 33 34 34 34 34 34 34 34 35 35 36 34 35 35 34 34 34
41 35 34 34 32 34 33 35 34 35 34 34 34 37 36 35 35 34 33 34 33 32
32 31 31 32 33 33 33 34 34 34 35 34 35 34 34 34 33 33 34 32 32 30
28 30 33 34 33 34 34 34 34 34 34 35 33 34 33 30 32 32 31 32 31 30
31 31 32 33 35 35 35 34 34 34 34 35 34 32 32 31 30 31 30 30 27 24
28 28 31 33 34 34 34 33 34 34 34 34 32 32 31 29 28 28 27 25 24 23
27 27 30 29 29 32 34 34 34 33 33 33 33 32 31 27 25 26 26 25 24 21
26 26 28 30 31 33 34 33 32 31 32 34 33 34 32 28 25 26 26 25 24 23
27 26 28 28 32 32 31 31 31 30 30 31 34 32 30 26 26 26 26 25 25 24
27 28 28 30 31 31 31 29 32 31 31 32 32 31 29 27 27 26 27 25 24 24
27 27 29 30 30 29 30 31 31 31 31 31 31 33 29 28 26 27 27 27 25 25

GFSNIL_sfc_dewp_057.txt.gz
Dewpoint
43 42 41 40 41 40 40 40 36 34 34 34 34 35 35 36 37 39 39 37 37 38
40 39 39 40 41 42 37 32 33 33 32 33 33 34 34 35 34 37 37 36 37 37
38 38 41 40 39 35 32 32 32 32 32 32 33 34 35 36 36 36 36 35 34 34
38 40 37 35 33 30 31 31 32 32 32 33 34 36 36 35 34 34 33 33 33 33
42 38 33 31 30 31 30 32 32 33 33 34 36 34 34 33 33 33 31 32 32 32
40 30 29 30 31 31 31 31 32 33 33 34 34 32 33 33 33 31 31 32 30 30
29 31 31 31 31 32 32 32 33 33 34 34 33 33 33 31 30 31 31 31 31 30
30 29 29 30 32 33 34 33 33 34 34 34 33 32 32 32 31 29 28 28 27 25
29 27 29 30 31 32 32 32 33 33 33 33 32 32 31 29 28 31 28 25 25 22
28 28 29 29 30 31 32 33 33 31 31 32 33 33 32 32 28 27 27 25 23 22
27 27 29 30 31 32 32 31 31 31 30 31 33 34 33 31 29 25 25 24 23 23
28 29 29 30 30 30 30 29 30 30 30 31 33 34 33 31 24 25 26 25 24 25
29 30 30 30 30 30 29 29 31 30 30 31 30 34 33 30 25 24 26 25 25 24
29 28 29 30 30 30 29 29 29 30 29 29 29 30 33 30 27 25 25 26 25 24

GFSNIL_sfc_dewp_060.txt.gz
Dewpoint
41 41 41 41 42 41 41 39 39 35 33 32 33 33 34 34 34 35 37 36 36 37
41 40 41 42 42 43 41 36 34 32 32 32 32 34 35 35 35 35 35 35 35 36
39 41 41 42 42 38 35 33 32 31 31 31 34 36 35 34 34 34 33 33 33 33
40 41 40 37 36 33 32 32 31 32 31 32 35 36 34 34 34 33 32 32 32 33
41 41 39 33 32 33 31 32 32 32 32 33 36 35 33 32 33 32 31 30 32 32
44 32 31 32 31 31 30 31 31 32 33 34 36 33 32 33 33 33 31 31 31 30
33 32 31 32 31 32 32 32 33 34 34 35 34 33 33 33 31 30 31 32 31 30
31 31 30 29 29 30 33 33 34 34 34 34 34 33 33 32 32 29 28 30 29 26
30 28 30 29 30 31 31 33 33 33 33 33 32 33 33 30 28 31 32 32 30 26
30 28 28 28 30 30 32 32 31 31 31 31 32 34 32 32 30 30 27 27 25 22
27 28 29 29 30 30 32 30 29 30 31 30 31 34 34 33 27 28 27 25 24 23
30 29 29 29 30 30 30 30 29 29 30 30 30 34 34 32 29 25 25 26 25 24
29 29 30 30 29 29 29 29 30 29 30 30 29 32 34 33 26 26 26 26 25 27
29 28 29 29 28 28 28 27 27 29 29 29 30 29 32 34 27 27 27 25 25 25

GFSNIL_sfc_dewp_063.txt.gz
Dewpoint
44 44 43 41 41 42 41 39 41 41 36 33 32 33 33 33 34 35 35 34 34 35
42 42 41 42 43 44 44 42 39 35 33 32 33 34 34 34 34 33 34 33 33 34
41 41 42 45 45 44 42 37 35 33 33 32 33 35 35 34 34 33 32 33 32 32
41 42 43 42 42 41 37 34 33 33 32 32 34 35 34 33 33 31 32 31 31 31
42 41 43 44 42 35 32 33 33 32 32 32 33 35 33 31 32 31 31 31 30 31
45 43 39 35 35 31 31 31 31 32 32 32 33 35 33 32 32 32 32 31 30 30
40 38 33 32 32 32 32 31 32 33 34 34 34 34 33 33 33 31 31 31 31 31
37 32 31 31 29 29 32 31 32 33 33 34 34 33 33 33 32 31 29 28 30 30
31 30 30 30 29 31 30 32 31 31 32 32 32 33 35 33 30 29 29 29 30 31
31 29 29 30 29 29 30 31 30 30 29 30 31 33 35 33 29 29 29 29 28 26
29 30 30 29 29 29 31 31 30 29 29 30 30 33 34 33 30 28 28 29 26 24
31 29 29 29 30 29 29 29 29 29 29 29 29 32 33 33 29 28 28 26 26 25
29 28 29 29 29 29 28 28 28 28 29 30 29 31 33 33 29 29 27 25 26 29
28 28 28 28 29 28 27 26 26 27 28 28 29 29 31 32 32 30 27 26 27 26

GFSNIL_sfc_dewp_066.txt.gz
Dewpoint
50 49 47 45 41 41 41 40 43 43 42 36 34 33 34 33 34 35 35 35 35 35
49 46 44 42 42 44 42 43 44 43 40 34 33 34 34 34 34 34 34 33 34 34
43 42 42 43 44 44 44 43 44 39 35 34 34 34 34 34 34 34 34 33 32 32
41 42 44 44 44 44 44 44 38 35 34 34 33 35 35 34 34 33 32 32 32 31
41 41 43 43 44 44 41 38 34 34 34 34 33 34 35 34 33 32 31 31 31 30
42 44 43 44 43 40 34 32 33 33 34 33 34 34 34 34 32 32 32 32 31 30
44 43 40 36 33 32 33 32 32 33 33 34 34 34 34 33 32 32 32 31 31 30
40 35 34 33 32 32 32 31 32 32 32 33 34 33 33 32 32 31 31 30 29 29
35 31 31 31 31 32 31 32 32 31 31 31 31 34 35 34 31 30 29 29 29 30
31 31 30 31 30 29 30 32 31 30 30 29 30 33 35 34 32 29 29 28 29 29
31 31 30 29 29 29 30 30 30 29 29 29 29 32 33 34 31 29 29 29 28 28
31 29 29 28 29 30 29 29 28 28 28 27 28 31 32 32 30 30 29 29 29 27
30 30 29 29 30 29 28 27 28 26 27 29 29 30 32 32 28 30 30 30 28 29
29 28 28 28 28 28 27 27 27 27 27 27 28 28 31 32 30 30 29 28 28 27

GFSNIL_sfc_dewp_069.txt.gz
Dewpoint
56 54 52 50 49 48 46 44 44 44 44 42 42 39 37 37 37 38 40 40 40 38
55 54 52 51 50 48 46 43 45 47 44 44 39 37 38 36 37 39 40 40 40 36
55 55 52 50 47 45 44 44 47 45 44 40 37 37 38 37 37 38 39 36 36 35
53 52 49 48 46 45 47 45 46 45 41 36 36 36 37 37 37 37 37 36 35 35
47 47 48 46 46 46 45 47 43 40 36 35 34 35 36 36 35 36 36 35 35 34
46 45 45 45 46 46 44 42 38 36 35 34 35 35 36 36 36 36 35 35 35 34
44 45 45 44 43 39 37 35 34 34 35 36 35 34 35 35 36 36 35 35 35 34
44 42 40 38 36 37 36 33 32 33 34 35 34 32 34 34 35 35 35 35 34 34
40 37 35 34 35 36 32 32 33 33 34 33 29 32 35 34 33 33 33 33 33 32
32 31 34 34 31 31 33 34 33 34 33 32 33 33 34 34 32 32 32 32 32 30
33 32 32 31 32 33 32 32 32 33 33 33 30 32 32 33 32 32 33 33 32 31
33 30 33 34 31 31 32 32 32 31 31 31 30 31 32 32 31 31 31 31 32 31
32 31 30 30 30 31 31 30 30 29 31 31 30 32 32 32 33 35 31 31 30 31
29 28 29 29 30 30 30 31 32 32 31 31 31 31 32 32 32 33 31 29 28 29

GFSNIL_sfc_dewp_072.txt.gz
Dewpoint
59 58 56 55 52 51 50 49 50 49 47 46 43 44 43 41 38 39 38 38 36 33
59 58 57 56 56 53 52 49 49 48 47 46 45 45 40 38 39 38 39 39 39 36
58 58 57 57 55 53 51 48 48 48 47 45 44 40 39 38 38 37 37 36 37 36
58 58 57 55 53 51 48 47 47 47 47 48 41 38 39 38 36 36 36 36 36 35
56 54 51 51 49 49 48 48 49 48 45 39 36 37 36 35 33 35 35 35 35 35
50 50 50 49 49 48 48 48 45 42 38 36 35 34 35 34 34 35 35 35 34 34
49 48 47 47 46 45 43 41 39 39 36 35 34 33 34 32 33 33 32 34 34 34
47 46 44 43 43 42 39 39 39 35 33 35 34 30 32 30 31 31 31 32 32 34
44 42 41 40 39 39 38 36 33 35 37 35 28 33 34 33 30 29 28 30 30 30
39 37 36 34 33 34 35 37 39 36 34 32 32 34 34 34 29 28 28 28 28 26
33 34 34 33 33 37 39 36 34 33 32 32 28 32 33 33 30 29 28 29 29 30
33 33 35 38 39 35 33 32 30 29 30 30 30 32 33 32 31 30 30 29 30 29
34 35 36 34 32 31 30 28 28 28 30 31 32 32 34 33 34 34 34 32 32 31
32 31 30 29 30 30 30 31 34 34 33 31 31 30 32 32 30 30 30 28 29 32

GFSNIL_sfc_dewp_075.txt.gz
Dewpoint
60 59 58 57 56 56 54 54 53 53 52 50 48 47 46 45 44 45 45 40 38 35
60 59 59 58 58 56 55 52 53 53 51 49 47 47 45 43 44 41 41 41 40 38
59 59 59 59 58 57 56 55 53 52 49 48 46 46 45 43 40 40 40 37 38 37
59 59 59 58 57 57 55 51 50 48 47 47 48 48 43 40 40 37 38 38 37 37
59 57 54 52 52 52 50 50 48 48 48 50 47 43 41 40 37 36 35 36 37 35
52 52 50 50 50 50 49 49 49 48 46 44 43 40 37 36 36 36 36 35 34 33
52 50 49 49 49 48 47 46 45 46 45 44 39 35 34 35 35 34 32 32 32 32
50 49 49 48 47 46 44 44 43 42 42 39 33 33 36 33 31 29 29 30 28 31
49 48 45 44 44 43 41 40 41 40 35 36 35 34 33 31 29 27 27 26 27 26
46 44 42 39 39 38 38 37 38 36 39 37 34 35 34 34 29 27 26 26 27 25
42 39 37 36 35 36 37 39 39 37 34 33 30 35 34 34 30 29 29 30 30 31
37 35 34 36 37 40 39 36 35 32 29 29 30 33 33 32 32 32 32 31 30 30
33 35 36 38 38 35 33 29 27 26 29 31 31 34 33 30 31 30 30 27 25 28
35 35 35 33 32 29 28 29 34 35 34 29 28 29 30 30 26 27 28 26 27 28

GFSNIL_sfc_dewp_078.txt.gz
Dewpoint
60 58 59 58 58 56 55 54 53 54 53 53 51 49 48 47 46 44 44 41 40 39
60 60 59 59 58 57 56 55 55 54 53 52 48 47 47 44 43 45 45 45 42 41
60 61 60 59 58 58 57 56 54 53 50 48 48 46 45 45 45 46 45 42 41 40
60 60 60 59 58 57 55 52 49 49 48 47 47 47 46 47 46 43 42 41 40 39
60 59 59 56 54 52 50 49 49 49 48 48 49 50 47 44 42 41 40 40 39 39
58 56 55 53 52 51 50 49 49 48 48 48 47 46 45 43 42 40 40 38 37 36
54 53 51 50 49 49 49 48 48 47 47 46 46 45 43 40 39 37 35 36 35 34
50 50 49 49 49 48 47 46 46 46 46 45 43 41 39 37 34 31 30 32 32 32
50 49 49 47 47 45 44 44 44 44 44 42 39 34 34 33 30 30 30 30 29 30
47 46 45 44 44 43 42 41 41 41 41 40 39 36 35 32 31 30 30 30 30 28
45 44 42 41 40 39 39 38 39 41 39 36 34 36 35 34 31 31 31 32 32 32
42 40 39 38 38 38 40 41 38 37 35 32 33 34 33 32 33 33 31 30 29 28
39 37 36 38 40 42 40 38 34 31 36 33 32 32 31 28 31 28 27 27 27 28
35 36 38 40 38 35 33 36 35 34 31 29 30 30 31 30 28 27 27 26 26 27

GFSNIL_sfc_dewp_081.txt.gz
Dewpoint
58 57 57 58 58 57 56 55 55 54 53 53 51 50 49 47 45 44 43 41 41 40
59 57 58 58 58 57 56 55 54 54 53 51 49 49 48 47 45 45 45 43 44 44
59 59 59 58 57 56 56 55 55 53 50 48 48 47 47 46 46 45 45 46 46 42
60 59 59 58 57 57 56 55 53 49 48 47 48 48 47 46 46 46 46 45 44 41
60 59 59 58 57 55 52 50 49 48 48 49 48 48 47 47 47 46 44 42 41 39
59 58 57 55 54 53 51 50 50 49 48 48 48 49 48 46 45 44 42 40 38 38
56 56 54 52 52 51 50 49 49 49 48 48 48 47 46 45 43 42 40 38 35 33
52 52 51 51 50 49 50 49 48 47 47 47 46 45 44 43 38 31 29 31 30 29
50 50 49 49 48 48 47 47 46 47 47 45 43 39 37 34 30 29 28 27 28 29
49 47 47 46 45 45 45 45 45 45 44 43 41 35 34 33 30 28 28 27 28 29
46 45 45 45 45 44 43 42 42 41 41 40 33 35 34 32 30 30 31 32 30 29
44 43 43 42 42 40 39 39 39 40 37 33 33 33 33 32 31 29 28 29 29 28
43 42 41 40 39 39 40 39 35 33 33 32 29 31 30 29 28 27 27 27 27 28
40 38 38 39 41 39 35 34 32 30 30 30 29 30 30 29 26 26 25 25 25 26

GFSNIL_sfc_dewp_084.txt.gz
Dewpoint
57 55 56 56 58 57 57 57 57 56 55 53 52 52 51 48 47 47 47 46 45 43
58 57 55 57 58 58 58 57 55 56 54 52 51 49 48 48 47 47 46 46 46 45
58 58 57 57 58 57 57 56 55 55 52 49 48 48 48 47 47 47 47 46 45 46
58 59 58 58 57 57 56 55 55 53 51 49 48 48 48 48 47 46 45 46 46 45
58 59 58 57 57 57 56 55 53 52 50 48 48 48 48 46 46 45 45 46 45 44
58 58 57 58 57 56 54 52 52 50 50 48 48 48 47 47 47 46 45 44 43 41
58 58 58 57 57 56 53 51 50 51 49 49 48 48 48 47 46 46 44 43 40 38
55 56 55 54 54 52 51 51 50 49 49 49 48 48 47 46 45 42 38 35 31 30
51 52 52 51 50 50 50 49 49 48 47 47 47 42 43 42 40 35 30 28 28 28
50 48 48 48 48 47 47 47 47 47 46 46 44 40 39 35 31 29 28 27 29 30
48 47 47 46 46 46 46 46 45 45 44 44 39 36 35 33 30 32 32 30 29 28
47 46 46 45 44 45 45 44 44 43 40 36 35 34 34 33 31 28 28 28 28 27
45 45 44 43 43 42 41 38 36 34 34 32 31 33 32 29 28 27 25 25 26 27
44 43 43 43 42 40 36 33 32 31 31 30 30 31 30 28 26 26 25 24 24 25

GFSNIL_sfc_dewp_087.txt.gz
Dewpoint
51 51 53 54 55 56 55 55 56 56 57 55 53 52 50 50 48 48 47 46 46 45
52 52 53 55 56 56 57 57 56 57 56 54 53 52 50 48 48 47 48 47 46 46
52 53 54 55 55 56 57 57 56 55 55 53 51 50 49 49 48 48 47 47 46 46
55 56 57 57 56 56 57 56 55 55 55 52 51 50 49 48 48 47 47 47 46 45
56 57 57 57 57 57 56 56 55 54 53 52 51 50 49 48 47 48 46 46 45 44
54 56 57 57 56 56 56 55 54 54 53 51 51 50 49 48 48 47 46 45 45 45
53 56 57 57 56 56 56 56 55 53 52 51 50 50 48 48 47 47 46 46 45 44
54 56 56 56 56 57 57 56 53 52 51 51 49 49 48 47 47 46 45 43 41 40
53 55 55 54 54 52 51 52 52 51 50 49 49 43 43 45 45 44 41 37 33 32
51 50 50 50 50 50 49 50 49 49 49 48 48 44 42 39 40 37 35 33 31 29
50 49 49 48 48 48 48 48 47 47 47 45 44 40 38 36 35 34 32 31 30 28
48 47 47 46 46 46 46 45 45 45 43 41 38 35 35 33 32 29 28 28 28 27
46 46 45 45 45 45 44 42 40 37 36 35 34 34 33 32 30 28 26 25 25 26
45 44 44 43 42 38 36 34 32 31 31 31 31 31 31 29 28 27 26 24 23 24

GFSNIL_sfc_dewp_090.txt.gz
Dewpoint
49 49 50 50 51 52 53 53 54 55 56 56 55 54 53 52 52 50 50 47 46 45
50 50 49 51 53 54 54 55 54 55 55 55 55 54 53 52 51 50 49 48 47 46
50 50 51 51 53 54 55 55 55 55 55 55 53 52 52 51 50 49 49 48 47 47
50 51 51 52 52 54 55 55 55 55 55 54 52 52 51 50 50 50 49 48 48 47
51 52 52 53 53 54 55 55 55 55 55 55 53 52 52 51 51 49 48 48 48 47
52 53 53 54 55 56 56 56 55 56 56 55 54 53 53 53 52 50 49 48 48 47
52 53 54 55 56 56 56 56 56 55 55 54 53 53 52 51 50 50 50 49 47 46
51 53 53 54 55 55 56 57 56 56 55 53 52 52 51 50 49 48 47 46 45 44
52 52 52 53 54 56 56 56 56 53 52 51 52 46 44 47 48 47 45 41 39 38
52 52 54 53 54 54 53 52 52 52 51 51 51 43 43 42 46 44 40 36 35 34
51 50 50 51 51 49 49 49 48 47 46 45 42 39 38 38 39 37 36 36 34 31
50 48 48 47 46 46 46 45 44 43 41 39 37 36 36 35 34 32 31 30 29 28
47 47 45 46 45 45 43 40 38 36 36 35 34 34 34 32 30 27 27 28 28 29
44 44 43 41 40 38 35 33 31 30 30 31 31 32 33 32 30 29 28 27 24 23

GFSNIL_sfc_dewp_093.txt.gz
Dewpoint
51 50 51 52 52 53 53 53 55 56 56 57 58 58 58 57 57 56 54 52 50 52
52 51 50 52 53 53 53 53 55 56 56 57 57 57 57 58 57 57 56 55 52 53
52 52 52 53 53 53 54 55 55 56 56 56 57 57 57 57 57 56 56 54 52 51
52 52 53 53 53 53 54 54 54 55 56 56 57 57 56 56 55 52 52 51 51 50
54 53 53 54 53 54 54 56 56 55 55 56 56 56 54 53 54 52 52 51 50 50
54 53 53 53 54 54 54 54 54 55 56 56 56 55 56 55 54 52 52 52 50 50
53 53 53 54 54 55 55 54 55 56 56 57 57 56 56 54 54 53 53 54 52 50
53 54 54 55 55 55 56 57 57 58 58 57 57 56 55 54 54 53 52 51 50 49
52 52 54 55 56 56 57 57 58 57 57 56 55 48 45 48 52 51 50 47 42 42
51 51 53 54 55 55 56 57 57 56 55 54 51 44 43 41 47 45 41 38 38 36
53 53 54 54 55 53 51 50 48 46 45 42 38 38 39 38 39 37 36 36 34 33
52 51 49 48 47 47 45 42 41 40 38 36 35 35 35 35 33 31 31 31 31 31
48 47 46 45 43 40 38 36 35 33 33 34 33 34 33 31 30 29 28 28 28 29
44 42 41 40 38 36 34 32 31 30 30 31 31 32 32 31 30 29 27 26 25 26

GFSNIL_sfc_dewp_096.txt.gz
Dewpoint
54 54 54 54 53 54 52 52 55 55 55 56 56 58 59 60 58 58 58 58 57 56
53 53 53 54 54 52 53 52 54 56 56 56 56 56 58 57 57 58 59 58 59 57
53 53 53 53 53 53 53 52 52 54 55 55 55 55 56 56 56 56 57 57 57 57
54 54 54 53 53 53 54 53 53 53 54 54 54 54 56 56 55 55 56 57 58 57
55 54 54 54 53 54 53 54 54 54 53 53 53 55 56 56 55 56 56 56 55 54
55 54 54 54 54 54 54 54 54 54 54 54 54 54 55 57 56 55 56 56 55 54
54 54 54 55 55 55 55 54 54 54 54 54 54 53 54 56 56 57 57 57 54 54
54 54 55 55 55 55 54 54 53 54 54 55 55 56 56 57 57 56 55 54 53 54
54 53 54 54 54 54 54 54 55 55 56 56 57 49 46 50 55 53 51 50 43 40
53 53 53 53 54 54 55 56 56 56 54 47 41 39 43 41 46 42 40 38 38 36
53 53 52 53 53 54 52 49 46 43 40 38 36 37 37 36 36 34 34 34 33 32
54 53 51 49 48 45 42 38 37 36 36 34 34 34 34 33 31 30 29 30 30 29
47 46 43 41 39 37 36 34 33 32 33 33 33 33 33 31 30 28 27 27 28 28
40 38 38 36 35 34 32 31 30 29 30 30 31 32 32 31 30 29 28 26 25 26

GFSNIL_sfc_dewp_099.txt.gz
Dewpoint
56 54 53 56 57 56 55 57 57 55 55 55 57 57 58 60 58 58 60 60 59 57
55 54 53 55 56 56 57 56 57 57 56 56 56 57 56 56 56 58 59 61 61 59
54 55 54 56 56 57 57 55 56 57 56 56 55 56 56 56 57 58 59 59 59 58
54 54 54 55 56 56 56 55 54 55 55 55 56 56 57 57 57 56 56 57 57 57
55 54 54 55 55 56 56 56 55 54 53 54 54 56 56 56 55 56 56 56 57 57
55 55 54 55 56 56 56 55 55 54 55 54 55 55 56 56 56 56 56 57 57 56
54 55 55 55 55 57 56 54 54 55 55 56 54 53 54 53 55 56 56 57 56 56
54 55 55 55 56 55 55 54 54 54 54 54 53 52 54 53 54 55 56 56 52 41
54 54 55 55 56 55 55 54 54 54 54 55 49 38 41 48 53 47 45 42 38 37
53 53 54 54 54 54 55 55 49 45 43 39 39 38 38 38 38 36 36 35 34 33
53 53 53 53 51 47 44 41 39 37 36 35 35 35 35 34 33 32 32 31 31 31
53 52 49 45 42 39 37 35 35 35 34 33 33 34 33 32 30 29 29 30 30 29
45 42 39 37 36 34 34 33 32 32 32 33 32 33 33 31 30 29 28 28 28 28
37 36 35 34 33 32 31 30 30 29 30 30 30 30 31 31 31 30 28 27 26 26

GFSNIL_sfc_dewp_102.txt.gz
Dewpoint
56 57 57 56 57 57 56 56 56 56 57 57 56 57 57 57 58 58 58 56 56 56
56 55 56 56 56 56 57 57 57 56 56 57 57 57 57 56 57 57 56 56 56 56
56 55 54 57 56 56 56 56 57 56 55 54 54 55 56 55 55 56 56 57 56 57
55 55 54 54 56 56 56 56 56 56 56 55 54 55 55 54 54 54 54 56 56 56
55 55 54 55 53 54 56 56 55 56 55 55 54 54 54 55 54 55 55 55 56 55
55 55 55 55 56 56 56 55 54 55 54 54 54 54 55 55 55 54 54 55 54 54
55 55 55 55 55 56 56 56 55 55 55 55 54 54 54 53 54 54 55 54 46 41
56 56 56 56 56 56 56 55 55 55 55 55 55 50 49 54 54 51 45 41 38 38
56 56 56 56 56 56 56 56 56 54 49 43 41 38 41 45 42 41 39 37 36 36
54 54 55 56 56 56 53 46 42 40 39 37 36 36 37 37 36 35 34 34 34 33
54 54 54 53 45 42 40 38 36 35 35 34 34 34 34 33 32 32 32 32 31 30
54 48 43 40 38 37 36 35 34 34 33 32 33 33 33 31 30 29 29 30 30 29
42 40 37 36 35 34 33 32 32 31 32 32 32 33 33 31 30 29 28 28 28 28
36 35 36 34 32 32 31 30 29 29 29 29 29 31 32 32 30 30 29 28 25 26

GFSNIL_sfc_dewp_105.txt.gz
Dewpoint
57 57 57 57 56 57 56 57 57 56 57 58 58 57 57 57 57 56 56 56 56 55
56 57 57 57 56 56 56 57 56 55 55 58 58 57 56 56 56 56 56 56 56 56
56 57 57 57 56 56 56 55 56 55 54 56 57 56 56 55 56 55 56 56 55 55
55 55 56 56 56 56 56 55 56 55 54 55 56 56 55 54 54 54 54 55 55 55
55 54 54 56 56 56 55 56 56 56 55 55 54 54 54 54 54 54 53 53 54 54
55 54 52 54 55 55 56 55 56 56 55 55 55 54 54 54 54 54 54 55 54 52
54 55 54 54 53 52 56 56 54 56 56 56 55 54 54 54 54 55 50 45 42 40
55 55 55 54 55 55 55 55 55 55 55 54 52 47 51 54 52 45 40 39 37 37
55 55 55 54 54 55 55 55 52 45 44 41 39 38 41 43 41 39 37 36 36 36
55 55 55 55 55 54 47 42 40 38 37 36 36 36 37 36 36 35 34 34 33 32
55 55 55 51 44 41 39 38 36 35 34 34 34 34 34 34 32 32 31 31 31 30
54 46 43 40 38 37 35 34 33 33 33 32 32 33 32 31 30 29 29 30 30 30
42 40 38 36 34 34 33 32 31 31 32 33 32 33 32 31 30 28 28 28 29 29
37 35 34 34 33 31 30 29 29 29 29 30 31 32 32 31 29 28 26 25 26 27

GFSNIL_sfc_dewp_108.txt.gz
Dewpoint
56 57 57 58 58 58 58 58 58 58 58 58 58 58 58 57 56 56 56 55 54 54
57 56 56 57 58 58 58 58 58 58 58 58 57 57 57 56 56 56 56 56 56 55
56 56 56 56 56 57 57 57 57 57 57 57 57 57 57 56 56 56 55 56 55 55
56 56 56 56 56 55 56 57 56 56 56 56 57 57 57 56 55 55 54 53 53 53
55 56 56 56 56 56 55 56 55 55 55 55 55 56 55 55 54 54 54 54 54 54
54 54 55 56 56 56 55 55 55 54 54 54 54 55 55 54 54 54 54 54 53 52
54 54 54 56 55 55 56 56 55 55 54 54 54 54 53 54 54 54 48 43 40 38
54 54 53 54 54 55 55 55 56 56 55 55 54 52 53 53 53 43 39 38 36 36
55 55 54 53 53 53 54 55 51 49 44 41 40 39 42 44 41 39 37 35 34 34
54 54 54 54 54 53 45 42 40 39 38 36 37 37 38 37 36 35 34 33 33 33
54 54 54 51 44 41 40 38 36 35 34 34 34 35 34 33 32 31 31 31 31 31
55 49 44 41 38 37 36 35 34 33 33 32 32 33 32 31 30 29 30 30 29 28
45 42 39 37 35 35 34 33 33 32 32 32 32 32 31 29 28 27 28 28 29 29
40 37 36 34 33 32 31 31 30 30 31 31 32 32 31 29 27 27 27 27 27 28

GFSNIL_sfc_dewp_111.txt.gz
Dewpoint
57 57 57 57 57 58 58 60 59 59 59 60 58 57 57 56 56 56 56 55 55 54
57 57 57 58 59 59 60 59 59 58 59 59 58 58 57 57 57 57 56 56 55 55
56 56 57 57 57 58 59 58 58 58 58 58 58 58 58 57 57 56 56 56 55 55
56 56 56 56 57 57 58 58 58 57 57 57 57 57 57 57 56 55 55 55 55 54
56 56 56 55 55 57 56 57 57 57 57 57 56 56 56 55 56 55 55 55 54 54
56 56 56 56 55 55 56 56 56 56 56 56 56 56 56 56 55 55 55 54 53 49
55 56 56 56 55 55 55 55 55 55 55 56 56 56 55 55 54 52 45 42 40 38
55 55 55 55 55 55 55 55 55 54 54 54 54 53 54 53 51 42 39 37 36 36
55 53 54 54 54 55 55 55 54 51 48 46 44 40 44 46 43 39 36 35 34 34
54 53 53 53 53 53 48 45 42 41 40 38 39 39 39 38 37 35 34 33 33 33
54 53 53 51 46 42 41 39 37 36 36 35 35 36 35 34 33 32 32 32 32 32
54 51 46 42 40 38 37 36 34 34 33 33 33 34 33 32 30 29 28 29 29 29
48 45 41 38 37 36 35 33 33 32 32 32 31 33 32 30 28 27 27 28 29 29
44 42 38 36 35 34 33 32 31 31 31 31 31 31 31 30 27 27 26 26 25 26

GFSNIL_sfc_dewp_114.txt.gz
Dewpoint
54 55 55 55 57 59 59 60 61 61 59 58 56 57 56 55 55 54 53 53 54 53
57 57 57 56 56 57 58 59 60 61 60 59 58 57 56 55 55 54 54 55 55 55
57 57 57 57 58 57 59 59 59 59 60 60 59 57 57 56 56 55 55 55 55 55
57 57 57 57 57 58 59 59 59 59 59 59 58 57 57 56 56 55 56 56 55 55
57 56 56 56 57 57 57 58 58 58 58 58 58 58 57 56 56 56 55 55 55 55
56 56 56 56 56 57 56 57 57 57 57 57 57 57 57 57 56 56 55 55 55 54
56 56 56 56 55 56 56 56 56 56 56 56 56 56 57 56 55 52 47 44 43 43
56 56 56 55 55 55 55 55 55 55 56 56 56 56 56 54 47 41 38 37 37 37
55 55 55 55 55 55 55 55 55 53 51 49 47 43 45 46 42 39 36 34 34 34
54 54 55 55 55 54 49 48 45 43 44 42 42 40 40 39 39 36 35 33 33 32
54 53 53 53 46 43 42 41 39 37 37 36 37 37 37 35 35 34 33 33 32 31
54 52 48 44 41 39 38 36 35 35 34 33 34 34 34 32 31 30 30 31 31 30
51 48 44 41 39 37 35 34 33 32 33 33 32 33 32 31 30 28 27 28 28 28
47 43 40 38 36 35 33 32 31 30 31 31 31 31 31 31 28 26 25 24 23 25

GFSNIL_sfc_dewp_117.txt.gz
Dewpoint
60 59 59 60 61 60 60 60 61 60 59 57 56 53 54 55 55 56 57 56 56 55
58 58 57 58 59 61 61 61 61 60 59 59 56 56 55 56 56 56 57 56 56 55
58 58 58 58 58 58 59 60 60 61 60 59 57 56 55 55 56 55 56 56 55 56
57 58 58 58 58 58 59 59 59 60 60 59 58 57 56 55 55 53 54 54 54 55
57 57 57 57 58 59 59 60 59 59 59 59 59 58 56 55 55 54 54 54 55 55
57 57 57 57 57 58 58 58 58 58 58 58 59 58 57 56 55 55 54 54 54 54
56 57 57 57 57 58 57 57 57 57 57 58 58 58 57 57 56 56 55 55 54 54
56 57 57 56 56 57 57 56 56 56 56 56 56 57 56 54 47 44 41 40 39 39
56 56 56 56 56 56 56 56 55 54 53 51 49 42 43 45 43 40 37 35 34 34
56 56 56 56 55 55 52 49 47 45 45 42 42 40 40 39 38 36 34 33 32 32
55 55 55 55 49 46 45 44 42 39 38 37 37 38 37 36 34 33 33 32 31 31
54 54 52 47 43 41 39 38 36 36 35 34 34 35 35 33 32 31 30 30 30 29
54 51 47 43 40 38 36 34 33 33 33 33 33 34 34 32 31 29 28 28 29 28
50 47 43 39 37 35 33 33 32 31 31 32 32 33 32 31 28 26 25 24 25 26